• In Kazakhstan
  • List of Countries
  • For 7 days
  • Water Temperature
  • Satellite Maps
  • Weather Map
  • News
  • Weather Widgets
  • user-avatar
    Login

    Hourly Weather Linz

    Today, 27 July, Thursday

    Time Temperature Precipitation Wind Pressure Humidity
    00:00 +13°C° 1.5 mm 4 mps 729 mmHg 96%
    01:00 +13°C° 1.5 mm 4 mps 729 mmHg 96%
    02:00 +13°C° 1.8 mm 4 mps 729 mmHg 96%
    03:00 +13°C° 1.8 mm 4 mps 729 mmHg 96%
    04:00 +13°C° 1.8 mm 3 mps 729 mmHg 96%
    05:00 +14°C° 0.7 mm 3 mps 730 mmHg 95%
    06:00 +14°C° 0.7 mm 3 mps 730 mmHg 95%
    07:00 +14°C° 0.7 mm 3 mps 730 mmHg 94%
    08:00 +17°C° 0.1 mm 3 mps 730 mmHg 87%
    09:00 +18°C° 0.1 mm 4 mps 730 mmHg 80%
    10:00 +20°C° 0.1 mm 4 mps 730 mmHg 73%
    11:00 +19°C° 0.3 mm 4 mps 730 mmHg 76%
    12:00 +19°C° 0.3 mm 4 mps 730 mmHg 80%
    13:00 +19°C° 0.3 mm 4 mps 730 mmHg 83%
    14:00 +18°C° 0.5 mm 3 mps 730 mmHg 87%
    15:00 +17°C° 0.5 mm 3 mps 730 mmHg 91%
    16:00 +16°C° 0.5 mm 2 mps 730 mmHg 95%
    17:00 +16°C° 0.1 mm 2 mps 730 mmHg 95%
    18:00 +16°C° 0.1 mm 1 mps 730 mmHg 95%
    19:00 +16°C° 0.1 mm 1 mps 730 mmHg 94%
    20:00 +16°C° 0.2 mm 1 mps 731 mmHg 95%
    21:00 +16°C° 0.2 mm 1 mps 731 mmHg 95%
    22:00 +16°C° 0.2 mm 1 mps 731 mmHg 95%
    23:00 +16°C° 0.3 mm 1 mps 731 mmHg 95%

    Tomorrow, 28 July, Friday

    Time Temperature Precipitation Wind Pressure Humidity
    00:00 +16°C° 0.3 mm 1 mps 731 mmHg 95%
    01:00 +16°C° 0.3 mm 1 mps 731 mmHg 95%
    02:00 +15°C° 0 mm 1 mps 731 mmHg 95%
    03:00 +15°C° 0 mm 1 mps 731 mmHg 95%
    04:00 +15°C° 0 mm 1 mps 731 mmHg 95%
    05:00 +16°C° 0 mm 1 mps 732 mmHg 93%
    06:00 +18°C° 0 mm 1 mps 732 mmHg 92%
    07:00 +19°C° 0 mm 1 mps 732 mmHg 90%
    08:00 +19°C° 0.1 mm 2 mps 732 mmHg 86%
    09:00 +20°C° 0.1 mm 2 mps 732 mmHg 81%
    10:00 +21°C° 0.1 mm 3 mps 732 mmHg 77%
    11:00 +20°C° 0.5 mm 2 mps 732 mmHg 82%
    12:00 +19°C° 0.5 mm 2 mps 732 mmHg 88%
    13:00 +18°C° 0.5 mm 2 mps 732 mmHg 94%
    14:00 +19°C° 0.1 mm 2 mps 733 mmHg 89%
    15:00 +21°C° 0.1 mm 2 mps 733 mmHg 85%
    16:00 +23°C° 0.1 mm 2 mps 733 mmHg 81%
    17:00 +21°C° 0.1 mm 2 mps 733 mmHg 84%
    18:00 +21°C° 0.1 mm 2 mps 733 mmHg 87%
    19:00 +20°C° 0.1 mm 2 mps 734 mmHg 90%
    20:00 +20°C° 0 mm 1 mps 734 mmHg 91%
    21:00 +19°C° 0 mm 1 mps 734 mmHg 93%
    22:00 +18°C° 0 mm 1 mps 735 mmHg 94%
    23:00 +18°C° 0 mm 1 mps 735 mmHg 94%

    Day after tomorrow, 29 July, Saturday

    Time Temperature Precipitation Wind Pressure Humidity
    00:00 +18°C° 0 mm 1 mps 735 mmHg 94%
    01:00 +16°C° 0 mm 1 mps 735 mmHg 93%
    02:00 +16°C° 0 mm 1 mps 735 mmHg 93%
    03:00 +16°C° 0 mm 1 mps 735 mmHg 93%
    04:00 +16°C° 0 mm 1 mps 735 mmHg 93%
    05:00 +18°C° 0 mm 1 mps 735 mmHg 90%
    06:00 +20°C° 0 mm 1 mps 735 mmHg 87%
    07:00 +21°C° 0 mm 1 mps 736 mmHg 85%
    08:00 +23°C° 0 mm 1 mps 736 mmHg 77%
    09:00 +25°C° 0 mm 1 mps 736 mmHg 69%
    10:00 +27°C° 0 mm 1 mps 736 mmHg 60%
    11:00 +28°C° 0 mm 2 mps 736 mmHg 58%
    12:00 +29°C° 0 mm 2 mps 735 mmHg 55%
    13:00 +29°C° 0 mm 2 mps 735 mmHg 52%
    14:00 +29°C° 0.1 mm 2 mps 735 mmHg 55%
    15:00 +29°C° 0.1 mm 2 mps 735 mmHg 58%
    16:00 +29°C° 0.1 mm 1 mps 735 mmHg 61%
    17:00 +27°C° 0.1 mm 1 mps 735 mmHg 68%
    18:00 +25°C° 0.1 mm 1 mps 735 mmHg 75%
    19:00 +24°C° 0.1 mm 1 mps 735 mmHg 82%
    20:00 +23°C° 0.1 mm 1 mps 735 mmHg 84%
    21:00 +22°C° 0.1 mm 1 mps 735 mmHg 86%
    22:00 +21°C° 0.1 mm 1 mps 735 mmHg 88%
    23:00 +21°C° 0 mm 1 mps 735 mmHg 88%

    30 July, Sunday

    Time Temperature Precipitation Wind Pressure Humidity
    00:00 +21°C° 0 mm 1 mps 735 mmHg 89%
    01:00 +20°C° 0 mm 1 mps 735 mmHg 90%
    02:00 +20°C° 0 mm 1 mps 734 mmHg 90%
    03:00 +20°C° 0 mm 1 mps 734 mmHg 90%
    04:00 +19°C° 0 mm 1 mps 734 mmHg 90%
    05:00 +21°C° 0 mm 1 mps 734 mmHg 88%
    06:00 +22°C° 0 mm 1 mps 734 mmHg 85%
    07:00 +23°C° 0 mm 1 mps 734 mmHg 82%
    08:00 +25°C° 0 mm 1 mps 733 mmHg 74%
    09:00 +28°C° 0 mm 1 mps 733 mmHg 65%
    10:00 +30°C° 0 mm 1 mps 733 mmHg 56%
    11:00 +31°C° 0 mm 1 mps 733 mmHg 53%
    12:00 +32°C° 0 mm 1 mps 733 mmHg 50%
    13:00 +33°C° 0 mm 1 mps 733 mmHg 46%
    14:00 +33°C° 0.1 mm 1 mps 732 mmHg 48%
    15:00 +32°C° 0.1 mm 1 mps 732 mmHg 50%
    16:00 +32°C° 0.1 mm 2 mps 732 mmHg 52%
    17:00 +30°C° 0.4 mm 2 mps 732 mmHg 61%
    18:00 +28°C° 0.4 mm 2 mps 732 mmHg 69%
    19:00 +26°C° 0.4 mm 2 mps 733 mmHg 78%
    20:00 +24°C° 0.7 mm 2 mps 733 mmHg 82%
    21:00 +23°C° 0.7 mm 1 mps 733 mmHg 87%
    22:00 +22°C° 0.7 mm 1 mps 733 mmHg 91%
    23:00 +22°C° 0.1 mm 1 mps 733 mmHg 91%

    31 July, Monday

    Time Temperature Precipitation Wind Pressure Humidity
    00:00 +21°C° 0.1 mm 1 mps 733 mmHg 92%
    01:00 +21°C° 0.1 mm 1 mps 733 mmHg 92%
    02:00 +20°C° 0.1 mm 1 mps 734 mmHg 93%
    03:00 +20°C° 0.1 mm 1 mps 734 mmHg 93%
    04:00 +20°C° 0.1 mm 1 mps 734 mmHg 94%
    05:00 +21°C° 0 mm 1 mps 734 mmHg 91%
    06:00 +22°C° 0 mm 1 mps 735 mmHg 89%
    07:00 +21°C° 0 mm 0 mps 735 mmHg 87%
    08:00 +25°C° 0 mm 1 mps 735 mmHg 78%
    09:00 +27°C° 0 mm 1 mps 735 mmHg 69%
    10:00 +30°C° 0 mm 1 mps 735 mmHg 60%
    11:00 +30°C° 0 mm 1 mps 735 mmHg 57%
    12:00 +31°C° 0 mm 2 mps 735 mmHg 53%
    13:00 +32°C° 0 mm 2 mps 735 mmHg 50%
    14:00 +32°C° 0 mm 2 mps 735 mmHg 51%
    15:00 +32°C° 0 mm 2 mps 734 mmHg 51%
    16:00 +33°C° 0 mm 3 mps 734 mmHg 52%
    17:00 +31°C° 0 mm 3 mps 734 mmHg 59%
    18:00 +29°C° 0 mm 3 mps 734 mmHg 66%
    19:00 +28°C° 0 mm 2 mps 734 mmHg 73%
    20:00 +27°C° 0 mm 2 mps 734 mmHg 73%
    21:00 +26°C° 0 mm 2 mps 734 mmHg 73%
    22:00 +25°C° 0 mm 3 mps 734 mmHg 73%
    23:00 +24°C° 0 mm 2 mps 734 mmHg 75%

    1 August, Tuesday

    Time Temperature Precipitation Wind Pressure Humidity
    00:00 +24°C° 0 mm 2 mps 733 mmHg 78%
    01:00 +23°C° 0 mm 2 mps 733 mmHg 80%
    02:00 +21°C° 0 mm 2 mps 733 mmHg 82%
    03:00 +22°C° 0 mm 1 mps 733 mmHg 84%
    04:00 +21°C° 0 mm 1 mps 733 mmHg 85%
    05:00 +22°C° 0 mm 1 mps 733 mmHg 82%
    06:00 +24°C° 0 mm 1 mps 733 mmHg 79%
    07:00 +25°C° 0 mm 1 mps 733 mmHg 76%
    08:00 +27°C° 0 mm 1 mps 733 mmHg 68%
    09:00 +29°C° 0 mm 1 mps 733 mmHg 61%
    10:00 +31°C° 0 mm 1 mps 733 mmHg 53%
    11:00 +33°C° 0 mm 1 mps 733 mmHg 50%
    12:00 +35°C° 0 mm 2 mps 733 mmHg 46%
    13:00 +36°C° 0 mm 2 mps 732 mmHg 43%
    14:00 +36°C° 0 mm 2 mps 732 mmHg 42%
    15:00 +36°C° 0 mm 2 mps 731 mmHg 42%
    16:00 +36°C° 0 mm 2 mps 731 mmHg 41%
    17:00 +34°C° 0 mm 2 mps 731 mmHg 49%
    18:00 +31°C° 0 mm 2 mps 731 mmHg 57%
    19:00 +29°C° 0 mm 1 mps 731 mmHg 64%
    20:00 +28°C° 0.1 mm 2 mps 731 mmHg 68%
    21:00 +26°C° 0.1 mm 3 mps 731 mmHg 72%
    22:00 +25°C° 0.1 mm 4 mps 732 mmHg 76%
    23:00 +23°C° 0.1 mm 4 mps 732 mmHg 81%
    Show more